• In United Kingdom
  • List of Countries
  • For 7 days
  • Water Temperature
  • Satellite Maps
  • Weather Map
  • Weather Widgets
  • user-avatar
    Login

    Hourly Weather Asadabad

    Today, 22 April, Sunday

    Time Temperature Precipitation Wind Pressure Humidity
    00:00 +13°C° 0 mm 3 mps 658 mmHg 47%
    01:00 +13°C° 0 mm 3 mps 657 mmHg 45%
    02:00 +12°C° 0 mm 3 mps 657 mmHg 43%
    03:00 +12°C° 0 mm 3 mps 657 mmHg 41%
    04:00 +12°C° 0 mm 3 mps 657 mmHg 39%
    05:00 +11°C° 0 mm 3 mps 656 mmHg 37%
    06:00 +13°C° 0 mm 3 mps 657 mmHg 35%
    07:00 +16°C° 0 mm 2 mps 658 mmHg 32%
    08:00 +18°C° 0 mm 2 mps 658 mmHg 30%
    09:00 +19°C° 0 mm 2 mps 659 mmHg 28%
    10:00 +20°C° 0 mm 2 mps 659 mmHg 27%
    11:00 +23°C° 0 mm 1 mps 659 mmHg 25%
    12:00 +24°C° 0 mm 2 mps 659 mmHg 24%
    13:00 +24°C° 0 mm 2 mps 659 mmHg 24%
    14:00 +25°C° 0 mm 2 mps 659 mmHg 24%
    15:00 +25°C° 0 mm 2 mps 659 mmHg 24%
    16:00 +25°C° 0 mm 2 mps 659 mmHg 25%
    17:00 +25°C° 0 mm 2 mps 659 mmHg 26%
    18:00 +23°C° 0 mm 2 mps 659 mmHg 30%
    19:00 +21°C° 0 mm 1 mps 659 mmHg 35%
    20:00 +19°C° 0 mm 1 mps 659 mmHg 40%
    21:00 +17°C° 0 mm 2 mps 659 mmHg 38%
    22:00 +17°C° 0 mm 2 mps 659 mmHg 35%
    23:00 +17°C° 0 mm 3 mps 660 mmHg 33%

    Tomorrow, 23 April, Monday

    Time Temperature Precipitation Wind Pressure Humidity
    00:00 +16°C° 0 mm 3 mps 659 mmHg 32%
    01:00 +16°C° 0 mm 3 mps 659 mmHg 31%
    02:00 +14°C° 0 mm 3 mps 659 mmHg 29%
    03:00 +14°C° 0 mm 4 mps 658 mmHg 29%
    04:00 +14°C° 0 mm 4 mps 658 mmHg 28%
    05:00 +13°C° 0 mm 4 mps 658 mmHg 27%
    06:00 +16°C° 0 mm 3 mps 659 mmHg 27%
    07:00 +18°C° 0 mm 3 mps 659 mmHg 27%
    08:00 +20°C° 0 mm 3 mps 660 mmHg 26%
    09:00 +23°C° 0 mm 2 mps 660 mmHg 24%
    10:00 +25°C° 0 mm 2 mps 660 mmHg 22%
    11:00 +26°C° 0 mm 1 mps 660 mmHg 20%
    12:00 +27°C° 0 mm 2 mps 660 mmHg 20%
    13:00 +28°C° 0 mm 2 mps 659 mmHg 20%
    14:00 +28°C° 0 mm 2 mps 659 mmHg 21%
    15:00 +28°C° 0 mm 2 mps 659 mmHg 21%
    16:00 +28°C° 0 mm 2 mps 659 mmHg 22%
    17:00 +28°C° 0 mm 2 mps 659 mmHg 22%
    18:00 +26°C° 0 mm 2 mps 658 mmHg 27%
    19:00 +24°C° 0 mm 1 mps 658 mmHg 32%
    20:00 +21°C° 0 mm 1 mps 658 mmHg 36%
    21:00 +20°C° 0 mm 2 mps 658 mmHg 35%
    22:00 +20°C° 0 mm 2 mps 659 mmHg 33%
    23:00 +20°C° 0 mm 3 mps 659 mmHg 32%

    Day after tomorrow, 24 April, Tuesday

    Time Temperature Precipitation Wind Pressure Humidity
    00:00 +19°C° 0 mm 3 mps 658 mmHg 32%
    01:00 +19°C° 0 mm 3 mps 658 mmHg 32%
    02:00 +18°C° 0 mm 3 mps 658 mmHg 32%
    03:00 +18°C° 0 mm 3 mps 658 mmHg 32%
    04:00 +17°C° 0 mm 3 mps 657 mmHg 31%
    05:00 +17°C° 0 mm 3 mps 657 mmHg 31%
    06:00 +19°C° 0 mm 3 mps 658 mmHg 29%
    07:00 +21°C° 0 mm 2 mps 658 mmHg 28%
    08:00 +24°C° 0 mm 2 mps 659 mmHg 26%
    09:00 +25°C° 0 mm 2 mps 659 mmHg 24%
    10:00 +27°C° 0 mm 2 mps 659 mmHg 22%
    11:00 +28°C° 0 mm 1 mps 659 mmHg 20%
    12:00 +29°C° 0 mm 2 mps 659 mmHg 20%
    13:00 +29°C° 0 mm 2 mps 659 mmHg 21%
    14:00 +30°C° 0 mm 2 mps 659 mmHg 21%
    15:00 +30°C° 0 mm 2 mps 659 mmHg 22%
    16:00 +29°C° 0 mm 2 mps 658 mmHg 23%
    17:00 +29°C° 0 mm 2 mps 658 mmHg 23%
    18:00 +27°C° 0 mm 1 mps 658 mmHg 29%
    19:00 +26°C° 0 mm 1 mps 658 mmHg 35%
    20:00 +22°C° 0 mm 0 mps 658 mmHg 41%
    21:00 +23°C° 0 mm 1 mps 658 mmHg 40%
    22:00 +23°C° 0 mm 1 mps 658 mmHg 38%
    23:00 +23°C° 0 mm 2 mps 658 mmHg 37%

    25 April, Wednesday

    Time Temperature Precipitation Wind Pressure Humidity
    00:00 +21°C° 0 mm 2 mps 658 mmHg 37%
    01:00 +20°C° 0 mm 2 mps 657 mmHg 37%
    02:00 +20°C° 0 mm 2 mps 657 mmHg 38%
    03:00 +19°C° 0 mm 2 mps 656 mmHg 38%
    04:00 +19°C° 0 mm 3 mps 656 mmHg 38%
    05:00 +19°C° 0 mm 3 mps 656 mmHg 38%
    06:00 +20°C° 0 mm 3 mps 656 mmHg 35%
    07:00 +23°C° 0 mm 2 mps 657 mmHg 33%
    08:00 +24°C° 0 mm 2 mps 658 mmHg 31%
    09:00 +25°C° 0 mm 2 mps 658 mmHg 30%
    10:00 +27°C° 0 mm 2 mps 658 mmHg 28%
    11:00 +28°C° 0 mm 2 mps 658 mmHg 27%
    12:00 +28°C° 0.1 mm 2 mps 658 mmHg 27%
    13:00 +29°C° 0.1 mm 3 mps 658 mmHg 27%
    14:00 +29°C° 0.1 mm 3 mps 658 mmHg 27%
    15:00 +29°C° 0.2 mm 3 mps 657 mmHg 27%
    16:00 +29°C° 0.2 mm 3 mps 657 mmHg 28%
    17:00 +28°C° 0.2 mm 3 mps 657 mmHg 28%
    18:00 +27°C° 0.2 mm 2 mps 657 mmHg 33%
    19:00 +25°C° 0.2 mm 2 mps 657 mmHg 38%
    20:00 +23°C° 0.2 mm 1 mps 657 mmHg 43%
    21:00 +21°C° 0.1 mm 2 mps 657 mmHg 44%
    22:00 +21°C° 0.1 mm 3 mps 657 mmHg 45%
    23:00 +20°C° 0.1 mm 3 mps 657 mmHg 46%

    26 April, Thursday

    Time Temperature Precipitation Wind Pressure Humidity
    00:00 +19°C° 0 mm 3 mps 657 mmHg 46%
    01:00 +19°C° 0 mm 3 mps 657 mmHg 47%
    02:00 +18°C° 0 mm 3 mps 656 mmHg 47%
    03:00 +18°C° 0 mm 3 mps 656 mmHg 46%
    04:00 +18°C° 0 mm 3 mps 656 mmHg 46%
    05:00 +17°C° 0 mm 3 mps 656 mmHg 45%
    06:00 +19°C° 0 mm 3 mps 656 mmHg 41%
    07:00 +21°C° 0 mm 3 mps 657 mmHg 38%
    08:00 +23°C° 0 mm 2 mps 658 mmHg 35%
    09:00 +24°C° 0 mm 2 mps 658 mmHg 33%
    10:00 +26°C° 0 mm 2 mps 658 mmHg 31%
    11:00 +27°C° 0 mm 2 mps 658 mmHg 29%
    12:00 +28°C° 0.1 mm 2 mps 658 mmHg 27%
    13:00 +28°C° 0.1 mm 2 mps 658 mmHg 26%
    14:00 +29°C° 0.1 mm 2 mps 658 mmHg 24%
    15:00 +29°C° 0.1 mm 2 mps 657 mmHg 24%
    16:00 +29°C° 0.1 mm 2 mps 657 mmHg 23%
    17:00 +29°C° 0.1 mm 2 mps 657 mmHg 23%
    18:00 +27°C° 0 mm 2 mps 657 mmHg 27%
    19:00 +25°C° 0 mm 2 mps 657 mmHg 31%
    20:00 +23°C° 0 mm 2 mps 657 mmHg 35%
    21:00 +21°C° 0 mm 2 mps 657 mmHg 35%
    22:00 +21°C° 0 mm 3 mps 657 mmHg 35%
    23:00 +20°C° 0 mm 3 mps 657 mmHg 35%

    27 April, Friday

    Time Temperature Precipitation Wind Pressure Humidity
    00:00 +20°C° 0 mm 3 mps 657 mmHg 35%
    01:00 +19°C° 0 mm 3 mps 657 mmHg 34%
    02:00 +19°C° 0 mm 3 mps 656 mmHg 34%
    03:00 +18°C° 0 mm 3 mps 656 mmHg 34%
    04:00 +18°C° 0 mm 3 mps 656 mmHg 33%
    05:00 +18°C° 0 mm 3 mps 656 mmHg 33%
    06:00 +19°C° 0 mm 3 mps 657 mmHg 31%
    07:00 +21°C° 0 mm 3 mps 658 mmHg 28%
    08:00 +24°C° 0 mm 2 mps 658 mmHg 26%
    09:00 +25°C° 0 mm 2 mps 659 mmHg 24%
    10:00 +26°C° 0 mm 2 mps 659 mmHg 22%
    11:00 +28°C° 0 mm 2 mps 659 mmHg 20%
    12:00 +28°C° 0 mm 2 mps 659 mmHg 20%
    13:00 +29°C° 0 mm 2 mps 658 mmHg 20%
    14:00 +29°C° 0 mm 3 mps 658 mmHg 20%
    15:00 +29°C° 0 mm 3 mps 658 mmHg 21%
    16:00 +28°C° 0 mm 3 mps 658 mmHg 22%
    17:00 +28°C° 0 mm 4 mps 657 mmHg 23%
    18:00 +26°C° 0 mm 3 mps 657 mmHg 27%
    19:00 +24°C° 0 mm 3 mps 657 mmHg 31%
    20:00 +21°C° 0 mm 3 mps 658 mmHg 35%
    21:00 +20°C° 0 mm 3 mps 658 mmHg 35%
    22:00 +20°C° 0 mm 4 mps 658 mmHg 36%
    23:00 +19°C° 0 mm 4 mps 658 mmHg 36%
    Show more